Home   Weather   Zagreb   Past weeks

Flag for Croatia Past Weather in Zagreb, Croatia — Yesterday and Last 2 Weeks

36 °F


Feels Like: 36 °F
Forecast: 36 / 56 °F
Wind: 1 mph from Southwest

Location: Zagreb / Pleso

Current Time: Oct 29, 2016 at 1:42:03 AM

Latest Report: Oct 29, 2016 at 1:00 AM

Visibility: N/A

Pressure: 30.48 "Hg

Humidity: 93%

Dew Point: 34 °F

Location of ZagrebLocation

Past Weather in Zagreb — Graph


Zagreb Temperature Yesterday

Maximum temperature yesterday: 57 °F (at 2:30 PM)
Minimum temperature yesterday: 37 °F (at 11:30 PM)
Average temperature yesterday: 47 °F

High & Low Weather Summary for the Past Weeks

High75 °F (Oct 25, 3:00 PM)100% (Oct 15, 11:00 PM)30.57 "Hg (Oct 15, 11:00 PM)
Low36 °F (Oct 22, 11:00 PM)51% (Oct 28, 2:30 PM)29.95 "Hg (Oct 20, 5:30 AM)
Average51 °F86%30.16 "Hg
* Reported Oct 14 12:00 AM — Oct 29 12:30 AM, Zagreb, Weather by CustomWeather, © 2016

Note: Actual official high and low records may vary slightly from our data, if they occured in-between our weather recording intervals... More about our weather records


Zagreb Weather History for the Previous 24 Hours

Scroll right to see more
Time TempWeatherWind HumidityBarometerVisibility
12:30 AM
Sat, Oct 29
36 °FFog.2 mph93%30.48 "HgN/A
12:00 AM37 °FFog.2 mph87%30.48 "HgN/A
11:30 PM
Fri, Oct 28
37 °FFog.3 mph87%30.48 "HgN/A
11:00 PM39 °FFog.1 mph87%30.51 "HgN/A
10:30 PM39 °FFog.1 mph87%30.51 "HgN/A
10:00 PM39 °FFog.No wind87%30.48 "HgN/A
9:30 PM41 °FClear.3 mph87%30.48 "Hg10 mi
9:00 PM41 °FClear.No wind87%30.48 "Hg10 mi
8:30 PM41 °FClear.1 mph87%30.48 "Hg10 mi
8:00 PM43 °FClear.No wind81%30.48 "Hg10 mi
7:30 PM45 °FClear.2 mph76%30.51 "Hg10 mi
7:00 PM46 °FClear.3 mph71%30.48 "Hg10 mi
6:30 PM50 °FClear.1 mph67%30.48 "Hg10 mi
6:00 PM50 °FClear.3 mph67%30.48 "Hg10 mi
5:30 PM54 °FSunny.2 mph58%30.51 "Hg10 mi
5:00 PM54 °FPassing clouds.3 mph58%30.48 "HgN/A
4:30 PM55 °FPassing clouds.5 mph55%30.48 "HgN/A
4:00 PM55 °FPassing clouds.3 mph55%30.48 "HgN/A
3:30 PM55 °FPassing clouds.3 mph55%30.51 "HgN/A
3:00 PM57 °FPassing clouds.2 mph51%30.51 "HgN/A
2:30 PM57 °FPassing clouds.3 mph51%30.51 "HgN/A
2:00 PM55 °FPassing clouds.3 mph55%30.51 "HgN/A
1:30 PM55 °FPassing clouds.6 mph55%30.54 "HgN/A
1:00 PM54 °FPassing clouds.5 mph58%30.57 "HgN/A
12:30 PM54 °FPassing clouds.6 mph63%30.57 "HgN/A
12:00 PM52 °FPassing clouds.5 mph67%30.57 "HgN/A
11:30 AM50 °FPassing clouds.6 mph71%30.57 "HgN/A
11:00 AM50 °FScattered clouds.6 mph67%30.57 "HgN/A
10:30 AM48 °FScattered clouds.6 mph71%30.57 "HgN/A
10:00 AM48 °FPartly sunny.6 mph71%30.57 "HgN/A
9:30 AM48 °FPartly sunny.5 mph76%30.54 "HgN/A
9:00 AM43 °FPassing clouds.1 mph93%30.57 "HgN/A
8:30 AM39 °FPassing clouds.3 mph93%30.54 "Hg5 mi
8:00 AM39 °FPassing clouds.1 mph87%30.54 "Hg5 mi
7:30 AM39 °FSunny.1 mph87%30.54 "Hg10 mi
7:00 AM41 °FClear.No wind87%30.54 "Hg10 mi
6:30 AM41 °FClear.No wind87%30.51 "Hg10 mi
6:00 AM41 °FClear.3 mph87%30.51 "Hg10 mi
5:30 AM43 °FClear.3 mph87%30.51 "Hg10 mi
5:00 AM45 °FPassing clouds.3 mph81%30.51 "HgN/A
4:30 AM46 °FPassing clouds.2 mph82%30.51 "HgN/A
4:00 AM46 °FPassing clouds.2 mph82%30.51 "HgN/A
3:30 AM46 °FPassing clouds.3 mph82%30.51 "HgN/A
3:00 AM46 °FPassing clouds.2 mph82%30.51 "HgN/A
2:30 AM46 °FPassing clouds.3 mph82%30.51 "HgN/A
2:00 AM46 °FPassing clouds.3 mph82%30.51 "HgN/A
1:30 AM46 °FPassing clouds.5 mph87%30.51 "HgN/A
1:00 AM46 °FPassing clouds.3 mph87%30.51 "HgN/A
Weather by CustomWeather, © 2016

See weather overviewHow to use our weather pages